Precipitable_Water
0.80 0.78 0.80 0.80 0.78 0.75 0.79 0.81 0.84 0.83 0.80 0.77 0.73 0.70 0.69 0.68 0.65 0.63 0.59 0.58 0.64 0.63 0.62 0.63 0.65 0.66 0.62 0.60 0.61 0.62 0.63 0.63 0.65 0.64 0.62 0.60 0.60 0.61 0.61 0.61 0.59 0.60 0.62 0.61 0.62 0.61 0.61 0.60 0.60 0.60 0.59 0.55 0.54 0.54 0.54 0.54 0.57 0.59 0.61 0.64 0.61 0.58 0.54 0.46 0.41 0.39 0.43 0.49 0.50 0.51 0.57 0.55 0.47 0.47 0.43 0.44 0.44 0.44 0.41 0.38 0.36 0.31 0.31 0.32 0.33
0.80 0.79 0.79 0.80 0.77 0.74 0.79 0.84 0.86 0.84 0.79 0.75 0.72 0.71 0.69 0.67 0.65 0.63 0.58 0.58 0.62 0.62 0.60 0.61 0.63 0.61 0.59 0.59 0.59 0.60 0.59 0.59 0.60 0.59 0.56 0.56 0.56 0.58 0.58 0.57 0.55 0.54 0.54 0.52 0.53 0.54 0.54 0.53 0.54 0.55 0.56 0.52 0.50 0.48 0.47 0.47 0.49 0.52 0.58 0.59 0.53 0.49 0.49 0.44 0.39 0.36 0.34 0.40 0.42 0.47 0.46 0.48 0.40 0.46 0.41 0.41 0.41 0.43 0.40 0.39 0.38 0.36 0.32 0.32 0.32
0.83 0.79 0.78 0.77 0.76 0.74 0.78 0.83 0.85 0.83 0.78 0.75 0.74 0.73 0.70 0.68 0.67 0.61 0.58 0.57 0.61 0.60 0.59 0.57 0.60 0.59 0.57 0.57 0.55 0.54 0.54 0.54 0.55 0.53 0.51 0.50 0.49 0.51 0.52 0.52 0.51 0.50 0.49 0.49 0.50 0.50 0.49 0.48 0.48 0.49 0.49 0.44 0.42 0.40 0.40 0.40 0.45 0.48 0.49 0.50 0.47 0.45 0.44 0.43 0.38 0.33 0.30 0.29 0.35 0.36 0.37 0.39 0.36 0.34 0.35 0.36 0.37 0.38 0.37 0.38 0.39 0.39 0.36 0.33 0.32
0.85 0.78 0.77 0.77 0.76 0.74 0.76 0.82 0.84 0.82 0.76 0.75 0.75 0.76 0.72 0.68 0.63 0.58 0.56 0.56 0.57 0.59 0.59 0.54 0.57 0.55 0.54 0.52 0.49 0.48 0.48 0.47 0.46 0.45 0.43 0.41 0.39 0.38 0.38 0.38 0.38 0.39 0.41 0.43 0.44 0.43 0.41 0.40 0.41 0.42 0.40 0.36 0.34 0.32 0.33 0.34 0.38 0.42 0.41 0.41 0.40 0.37 0.36 0.35 0.34 0.30 0.27 0.23 0.29 0.30 0.34 0.34 0.30 0.31 0.31 0.30 0.31 0.33 0.36 0.38 0.40 0.39 0.38 0.34 0.32
0.90 0.78 0.76 0.76 0.75 0.75 0.76 0.81 0.82 0.80 0.75 0.75 0.75 0.77 0.73 0.67 0.61 0.56 0.56 0.54 0.57 0.56 0.55 0.54 0.55 0.53 0.50 0.48 0.46 0.45 0.42 0.42 0.41 0.39 0.38 0.36 0.34 0.33 0.30 0.27 0.23 0.24 0.28 0.33 0.37 0.36 0.35 0.33 0.34 0.36 0.36 0.33 0.31 0.30 0.30 0.30 0.33 0.35 0.35 0.36 0.35 0.34 0.33 0.32 0.31 0.29 0.24 0.23 0.25 0.29 0.32 0.33 0.32 0.30 0.30 0.29 0.30 0.31 0.33 0.33 0.35 0.37 0.38 0.36 0.34
0.94 0.83 0.76 0.74 0.75 0.75 0.75 0.78 0.81 0.79 0.76 0.74 0.75 0.76 0.75 0.70 0.63 0.57 0.56 0.52 0.56 0.54 0.52 0.52 0.52 0.48 0.48 0.47 0.45 0.43 0.41 0.41 0.39 0.37 0.36 0.35 0.33 0.29 0.24 0.19 0.20 0.21 0.24 0.27 0.30 0.33 0.33 0.32 0.33 0.34 0.34 0.31 0.29 0.30 0.29 0.27 0.28 0.30 0.31 0.31 0.31 0.31 0.31 0.29 0.28 0.26 0.24 0.23 0.23 0.24 0.29 0.30 0.30 0.30 0.31 0.32 0.28 0.25 0.24 0.25 0.27 0.31 0.34 0.32 0.32
0.95 0.88 0.78 0.75 0.74 0.75 0.75 0.77 0.81 0.80 0.76 0.75 0.76 0.77 0.75 0.72 0.67 0.58 0.55 0.51 0.53 0.51 0.50 0.47 0.48 0.48 0.48 0.47 0.44 0.43 0.42 0.42 0.39 0.36 0.35 0.34 0.31 0.25 0.19 0.17 0.17 0.18 0.20 0.22 0.25 0.27 0.29 0.30 0.30 0.30 0.29 0.30 0.28 0.27 0.27 0.27 0.27 0.26 0.26 0.26 0.26 0.24 0.23 0.23 0.23 0.22 0.22 0.21 0.22 0.24 0.25 0.29 0.31 0.30 0.34 0.37 0.37 0.35 0.29 0.23 0.23 0.28 0.30 0.29 0.25
0.94 0.92 0.84 0.76 0.75 0.76 0.78 0.81 0.83 0.81 0.77 0.76 0.77 0.77 0.76 0.72 0.68 0.62 0.54 0.49 0.50 0.47 0.46 0.45 0.45 0.47 0.46 0.46 0.46 0.45 0.44 0.43 0.42 0.38 0.35 0.34 0.29 0.22 0.17 0.16 0.16 0.16 0.17 0.17 0.18 0.19 0.20 0.21 0.22 0.23 0.25 0.28 0.29 0.28 0.29 0.27 0.28 0.26 0.27 0.26 0.25 0.23 0.22 0.22 0.21 0.20 0.19 0.19 0.19 0.20 0.22 0.24 0.29 0.33 0.36 0.37 0.35 0.34 0.35 0.27 0.21 0.24 0.26 0.26 0.26
0.90 0.90 0.88 0.81 0.76 0.79 0.80 0.80 0.84 0.83 0.79 0.77 0.77 0.76 0.74 0.72 0.70 0.64 0.54 0.44 0.49 0.49 0.45 0.44 0.44 0.44 0.46 0.46 0.45 0.45 0.43 0.43 0.42 0.38 0.35 0.33 0.29 0.21 0.17 0.16 0.16 0.15 0.15 0.14 0.13 0.13 0.14 0.17 0.19 0.22 0.25 0.28 0.30 0.31 0.30 0.29 0.28 0.26 0.28 0.28 0.26 0.24 0.23 0.22 0.21 0.19 0.17 0.15 0.14 0.17 0.19 0.21 0.24 0.28 0.30 0.31 0.31 0.31 0.32 0.28 0.20 0.23 0.24 0.23 0.25
0.88 0.89 0.89 0.87 0.82 0.81 0.82 0.81 0.82 0.83 0.80 0.76 0.75 0.76 0.75 0.74 0.70 0.63 0.53 0.45 0.48 0.48 0.45 0.45 0.45 0.45 0.45 0.45 0.45 0.43 0.42 0.43 0.44 0.40 0.37 0.33 0.28 0.22 0.17 0.16 0.15 0.14 0.14 0.14 0.15 0.14 0.13 0.13 0.15 0.18 0.20 0.23 0.26 0.28 0.29 0.29 0.29 0.29 0.28 0.29 0.27 0.25 0.24 0.22 0.21 0.19 0.17 0.14 0.12 0.14 0.15 0.18 0.21 0.24 0.27 0.31 0.34 0.35 0.30 0.21 0.16 0.19 0.21 0.21 0.23
0.86 0.87 0.88 0.90 0.88 0.85 0.83 0.82 0.81 0.80 0.79 0.77 0.76 0.77 0.75 0.73 0.69 0.63 0.55 0.49 0.49 0.47 0.45 0.44 0.44 0.44 0.44 0.43 0.41 0.40 0.41 0.43 0.43 0.41 0.38 0.34 0.29 0.23 0.17 0.15 0.14 0.15 0.16 0.16 0.17 0.18 0.18 0.15 0.12 0.12 0.13 0.15 0.19 0.22 0.25 0.27 0.27 0.28 0.28 0.27 0.26 0.24 0.22 0.20 0.20 0.19 0.17 0.14 0.13 0.15 0.17 0.18 0.21 0.24 0.26 0.28 0.32 0.31 0.28 0.23 0.17 0.18 0.20 0.19 0.17
0.84 0.85 0.88 0.90 0.90 0.88 0.85 0.83 0.81 0.80 0.80 0.77 0.76 0.79 0.76 0.72 0.68 0.64 0.58 0.51 0.49 0.49 0.46 0.44 0.43 0.43 0.43 0.41 0.38 0.36 0.39 0.42 0.43 0.41 0.37 0.33 0.30 0.26 0.20 0.17 0.16 0.15 0.16 0.18 0.19 0.20 0.20 0.19 0.16 0.12 0.10 0.11 0.12 0.13 0.15 0.17 0.18 0.19 0.20 0.19 0.18 0.18 0.18 0.17 0.16 0.14 0.12 0.12 0.13 0.15 0.17 0.19 0.21 0.24 0.25 0.28 0.28 0.30 0.30 0.24 0.18 0.17 0.20 0.21 0.20
0.87 0.86 0.88 0.89 0.89 0.90 0.89 0.87 0.84 0.80 0.80 0.79 0.78 0.78 0.75 0.70 0.67 0.63 0.58 0.54 0.50 0.45 0.44 0.42 0.42 0.43 0.42 0.40 0.35 0.32 0.36 0.41 0.42 0.41 0.38 0.35 0.32 0.29 0.28 0.27 0.24 0.21 0.18 0.19 0.20 0.22 0.23 0.23 0.21 0.18 0.14 0.12 0.11 0.11 0.11 0.12 0.12 0.13 0.13 0.13 0.13 0.12 0.13 0.14 0.14 0.13 0.13 0.13 0.14 0.16 0.19 0.20 0.21 0.23 0.27 0.28 0.30 0.28 0.28 0.23 0.20 0.19 0.19 0.20 0.20
0.88 0.87 0.88 0.88 0.89 0.90 0.91 0.90 0.87 0.84 0.81 0.80 0.78 0.76 0.74 0.69 0.66 0.65 0.60 0.56 0.51 0.45 0.42 0.41 0.41 0.41 0.41 0.40 0.32 0.30 0.34 0.39 0.41 0.42 0.41 0.38 0.34 0.31 0.30 0.29 0.28 0.26 0.23 0.20 0.21 0.23 0.24 0.22 0.20 0.16 0.12 0.11 0.11 0.11 0.11 0.10 0.10 0.10 0.10 0.11 0.11 0.12 0.12 0.13 0.14 0.15 0.15 0.15 0.16 0.17 0.22 0.25 0.23 0.27 0.30 0.31 0.29 0.28 0.27 0.23 0.22 0.20 0.20 0.18 0.21
0.91 0.90 0.87 0.87 0.89 0.90 0.91 0.91 0.90 0.88 0.84 0.81 0.78 0.76 0.74 0.70 0.67 0.65 0.60 0.54 0.53 0.47 0.42 0.40 0.40 0.40 0.41 0.41 0.33 0.30 0.34 0.37 0.39 0.40 0.40 0.39 0.35 0.32 0.31 0.30 0.28 0.27 0.25 0.22 0.22 0.24 0.24 0.24 0.21 0.18 0.15 0.13 0.13 0.13 0.13 0.14 0.13 0.13 0.12 0.12 0.12 0.12 0.13 0.15 0.16 0.17 0.18 0.18 0.18 0.19 0.21 0.25 0.28 0.31 0.32 0.33 0.32 0.33 0.32 0.27 0.26 0.26 0.25 0.23 0.22
0.89 0.91 0.89 0.87 0.88 0.90 0.91 0.91 0.92 0.91 0.88 0.83 0.79 0.77 0.75 0.71 0.67 0.66 0.61 0.56 0.56 0.53 0.46 0.43 0.41 0.40 0.40 0.40 0.32 0.29 0.33 0.36 0.38 0.38 0.37 0.37 0.36 0.34 0.31 0.29 0.27 0.26 0.24 0.24 0.25 0.28 0.28 0.25 0.22 0.19 0.18 0.17 0.17 0.18 0.18 0.18 0.16 0.15 0.15 0.16 0.17 0.18 0.19 0.22 0.23 0.24 0.23 0.23 0.23 0.22 0.22 0.23 0.26 0.29 0.33 0.33 0.33 0.36 0.35 0.32 0.29 0.28 0.24 0.19 0.16
0.87 0.89 0.89 0.89 0.89 0.91 0.92 0.92 0.93 0.93 0.91 0.86 0.81 0.79 0.77 0.74 0.70 0.69 0.63 0.57 0.55 0.54 0.48 0.44 0.43 0.42 0.40 0.38 0.30 0.28 0.31 0.34 0.36 0.36 0.36 0.36 0.34 0.33 0.31 0.29 0.27 0.26 0.24 0.25 0.26 0.27 0.27 0.25 0.23 0.20 0.21 0.20 0.20 0.20 0.20 0.22 0.19 0.16 0.16 0.17 0.18 0.19 0.20 0.23 0.26 0.26 0.27 0.27 0.26 0.26 0.25 0.24 0.23 0.25 0.29 0.32 0.34 0.35 0.33 0.29 0.28 0.27 0.22 0.18 0.15
0.87 0.88 0.88 0.90 0.91 0.92 0.94 0.95 0.95 0.96 0.93 0.88 0.85 0.82 0.81 0.77 0.72 0.70 0.64 0.59 0.56 0.56 0.53 0.48 0.45 0.43 0.41 0.37 0.31 0.25 0.28 0.33 0.35 0.35 0.35 0.35 0.33 0.31 0.30 0.27 0.26 0.25 0.24 0.25 0.25 0.25 0.24 0.23 0.20 0.20 0.21 0.22 0.23 0.22 0.22 0.23 0.22 0.20 0.18 0.16 0.17 0.18 0.21 0.24 0.26 0.27 0.29 0.28 0.28 0.28 0.27 0.26 0.24 0.24 0.26 0.30 0.32 0.34 0.32 0.28 0.28 0.26 0.21 0.17 0.13
0.88 0.87 0.88 0.91 0.93 0.95 0.97 0.98 0.98 0.97 0.95 0.93 0.90 0.85 0.83 0.80 0.75 0.71 0.67 0.63 0.58 0.57 0.59 0.52 0.47 0.44 0.43 0.40 0.36 0.27 0.26 0.31 0.33 0.34 0.34 0.34 0.32 0.30 0.28 0.25 0.23 0.23 0.23 0.22 0.23 0.23 0.23 0.20 0.19 0.20 0.20 0.22 0.24 0.24 0.23 0.24 0.23 0.22 0.20 0.18 0.17 0.18 0.21 0.23 0.25 0.26 0.28 0.28 0.28 0.28 0.27 0.27 0.26 0.23 0.25 0.28 0.30 0.31 0.31 0.29 0.29 0.24 0.21 0.18 0.15
0.94 0.95 0.95 0.94 0.95 0.96 0.98 1.00 0.99 0.97 0.95 0.94 0.93 0.90 0.89 0.85 0.80 0.74 0.68 0.64 0.61 0.58 0.59 0.57 0.50 0.45 0.44 0.42 0.39 0.33 0.25 0.28 0.32 0.33 0.34 0.33 0.31 0.28 0.26 0.22 0.21 0.22 0.22 0.20 0.19 0.19 0.19 0.18 0.18 0.18 0.19 0.21 0.24 0.25 0.25 0.25 0.24 0.22 0.21 0.17 0.18 0.19 0.24 0.26 0.26 0.27 0.28 0.29 0.28 0.28 0.26 0.26 0.23 0.22 0.24 0.26 0.27 0.28 0.27 0.26 0.24 0.22 0.20 0.16 0.14
0.97 0.95 0.99 1.01 1.00 1.00 1.00 0.99 0.98 0.98 0.98 0.96 0.95 0.94 0.92 0.89 0.85 0.79 0.71 0.66 0.62 0.60 0.60 0.60 0.55 0.50 0.46 0.44 0.41 0.37 0.29 0.26 0.30 0.32 0.33 0.33 0.33 0.29 0.27 0.25 0.24 0.24 0.23 0.22 0.20 0.17 0.16 0.15 0.14 0.16 0.17 0.19 0.21 0.23 0.24 0.25 0.24 0.23 0.21 0.18 0.19 0.20 0.24 0.24 0.24 0.27 0.26 0.27 0.25 0.25 0.26 0.25 0.21 0.22 0.24 0.26 0.27 0.26 0.25 0.23 0.22 0.19 0.16 0.14 0.14
0.98 0.99 0.98 1.01 1.04 1.06 1.09 1.07 1.06 1.01 1.00 0.99 0.96 0.93 0.94 0.92 0.89 0.85 0.78 0.69 0.62 0.59 0.59 0.59 0.58 0.54 0.50 0.46 0.44 0.40 0.35 0.28 0.27 0.30 0.32 0.33 0.33 0.33 0.29 0.28 0.28 0.26 0.24 0.23 0.20 0.17 0.16 0.15 0.13 0.13 0.14 0.16 0.17 0.19 0.21 0.22 0.23 0.22 0.21 0.21 0.21 0.18 0.21 0.23 0.24 0.23 0.24 0.25 0.23 0.23 0.24 0.24 0.21 0.21 0.25 0.27 0.28 0.29 0.28 0.25 0.22 0.20 0.19 0.18 0.15
0.97 0.98 1.00 1.01 1.00 0.99 1.02 1.00 0.98 0.97 0.98 0.98 0.97 0.95 0.95 0.92 0.90 0.89 0.83 0.76 0.67 0.61 0.59 0.58 0.58 0.57 0.54 0.49 0.46 0.43 0.40 0.34 0.28 0.28 0.30 0.31 0.33 0.34 0.33 0.31 0.29 0.28 0.25 0.23 0.21 0.19 0.16 0.15 0.14 0.12 0.11 0.12 0.13 0.13 0.13 0.16 0.18 0.19 0.20 0.21 0.20 0.18 0.21 0.22 0.22 0.21 0.21 0.21 0.21 0.21 0.22 0.22 0.20 0.20 0.23 0.25 0.27 0.29 0.29 0.29 0.27 0.24 0.22 0.21 0.20
0.95 0.95 0.95 0.97 1.01 1.00 1.01 1.00 0.97 0.94 0.93 0.95 0.95 0.95 0.94 0.93 0.91 0.89 0.88 0.83 0.74 0.65 0.60 0.58 0.58 0.58 0.56 0.51 0.47 0.45 0.43 0.39 0.32 0.27 0.28 0.29 0.32 0.35 0.35 0.34 0.31 0.28 0.27 0.25 0.24 0.23 0.20 0.17 0.14 0.12 0.11 0.11 0.11 0.10 0.10 0.11 0.12 0.13 0.16 0.16 0.17 0.20 0.21 0.21 0.21 0.20 0.20 0.19 0.19 0.19 0.19 0.19 0.20 0.20 0.23 0.25 0.27 0.27 0.28 0.30 0.30 0.28 0.23 0.22 0.22
0.94 0.92 0.93 0.96 0.96 0.97 0.98 0.99 0.99 0.98 0.94 0.92 0.89 0.89 0.90 0.90 0.86 0.88 0.87 0.84 0.81 0.72 0.64 0.59 0.56 0.56 0.57 0.54 0.48 0.46 0.44 0.41 0.36 0.31 0.27 0.28 0.32 0.34 0.36 0.36 0.34 0.31 0.28 0.28 0.26 0.25 0.23 0.21 0.17 0.13 0.11 0.11 0.11 0.11 0.10 0.10 0.11 0.12 0.13 0.16 0.19 0.20 0.20 0.20 0.20 0.20 0.18 0.18 0.18 0.18 0.17 0.18 0.20 0.21 0.24 0.25 0.27 0.28 0.28 0.29 0.31 0.30 0.28 0.26 0.23
0.92 0.90 0.89 0.90 0.92 0.94 0.93 0.95 1.01 1.03 0.99 0.93 0.90 0.88 0.85 0.84 0.83 0.83 0.83 0.84 0.83 0.79 0.72 0.64 0.57 0.56 0.57 0.57 0.51 0.47 0.46 0.43 0.38 0.36 0.31 0.28 0.31 0.34 0.36 0.37 0.36 0.34 0.32 0.30 0.29 0.27 0.25 0.22 0.20 0.18 0.16 0.13 0.12 0.11 0.10 0.10 0.10 0.11 0.13 0.16 0.19 0.19 0.20 0.21 0.21 0.19 0.18 0.18 0.18 0.18 0.18 0.19 0.21 0.23 0.24 0.25 0.25 0.27 0.27 0.27 0.28 0.28 0.28 0.24 0.20
0.88 0.91 0.90 0.92 0.95 0.97 0.96 0.97 0.96 0.94 0.90 0.88 0.88 0.87 0.85 0.82 0.80 0.79 0.79 0.79 0.81 0.81 0.77 0.71 0.62 0.56 0.56 0.58 0.56 0.50 0.46 0.44 0.41 0.38 0.36 0.31 0.29 0.31 0.34 0.36 0.38 0.36 0.35 0.34 0.32 0.29 0.27 0.24 0.22 0.21 0.20 0.18 0.15 0.12 0.12 0.11 0.11 0.12 0.13 0.16 0.18 0.19 0.20 0.20 0.20 0.20 0.19 0.18 0.19 0.19 0.20 0.20 0.23 0.23 0.22 0.22 0.24 0.27 0.29 0.27 0.26 0.26 0.27 0.25 0.21
0.83 0.85 0.88 0.91 0.92 0.94 0.95 0.95 0.94 0.93 0.91 0.87 0.84 0.83 0.82 0.81 0.78 0.76 0.75 0.75 0.76 0.77 0.78 0.76 0.70 0.62 0.56 0.57 0.57 0.52 0.47 0.44 0.42 0.38 0.37 0.33 0.30 0.29 0.30 0.33 0.35 0.35 0.33 0.33 0.32 0.32 0.29 0.26 0.23 0.22 0.21 0.19 0.17 0.14 0.13 0.12 0.11 0.12 0.13 0.16 0.18 0.20 0.21 0.22 0.23 0.21 0.20 0.20 0.20 0.20 0.20 0.19 0.21 0.22 0.23 0.21 0.21 0.26 0.29 0.28 0.26 0.26 0.27 0.25 0.20
0.84 0.83 0.86 0.89 0.89 0.90 0.91 0.92 0.92 0.91 0.90 0.88 0.85 0.82 0.79 0.78 0.76 0.76 0.79 0.80 0.80 0.79 0.79 0.79 0.78 0.74 0.64 0.57 0.55 0.52 0.48 0.43 0.40 0.39 0.38 0.36 0.32 0.29 0.28 0.29 0.32 0.35 0.34 0.33 0.32 0.31 0.29 0.26 0.24 0.23 0.22 0.20 0.17 0.14 0.13 0.12 0.12 0.13 0.14 0.16 0.18 0.19 0.20 0.20 0.20 0.19 0.19 0.19 0.18 0.19 0.18 0.19 0.19 0.22 0.23 0.21 0.20 0.24 0.28 0.27 0.27 0.26 0.27 0.25 0.20
0.88 0.85 0.85 0.85 0.85 0.86 0.87 0.88 0.88 0.88 0.87 0.85 0.83 0.83 0.85 0.84 0.82 0.77 0.76 0.80 0.81 0.84 0.85 0.82 0.82 0.80 0.73 0.64 0.58 0.52 0.47 0.42 0.40 0.41 0.41 0.39 0.36 0.32 0.29 0.29 0.30 0.33 0.35 0.33 0.31 0.28 0.27 0.25 0.25 0.24 0.23 0.22 0.19 0.17 0.15 0.14 0.14 0.15 0.15 0.15 0.17 0.18 0.19 0.19 0.18 0.18 0.19 0.18 0.19 0.19 0.19 0.19 0.20 0.20 0.22 0.22 0.21 0.25 0.28 0.27 0.25 0.26 0.24 0.23 0.20
0.90 0.89 0.88 0.87 0.86 0.86 0.85 0.84 0.85 0.85 0.85 0.85 0.84 0.81 0.81 0.84 0.84 0.82 0.79 0.79 0.82 0.83 0.84 0.85 0.84 0.82 0.78 0.70 0.66 0.61 0.54 0.48 0.43 0.41 0.41 0.40 0.38 0.35 0.32 0.30 0.30 0.32 0.34 0.33 0.30 0.28 0.27 0.26 0.26 0.26 0.26 0.25 0.23 0.21 0.20 0.19 0.18 0.17 0.16 0.16 0.17 0.18 0.19 0.20 0.19 0.19 0.20 0.19 0.20 0.19 0.20 0.20 0.20 0.20 0.22 0.23 0.22 0.24 0.26 0.26 0.26 0.24 0.23 0.22 0.20
0.98 0.94 0.92 0.89 0.90 0.88 0.86 0.85 0.85 0.84 0.84 0.85 0.85 0.83 0.81 0.78 0.79 0.83 0.81 0.79 0.79 0.82 0.83 0.84 0.83 0.82 0.80 0.76 0.71 0.65 0.60 0.52 0.44 0.41 0.40 0.40 0.39 0.37 0.35 0.33 0.31 0.31 0.32 0.32 0.29 0.27 0.27 0.27 0.27 0.27 0.27 0.26 0.25 0.25 0.24 0.22 0.20 0.19 0.18 0.17 0.17 0.18 0.19 0.20 0.22 0.22 0.23 0.22 0.21 0.20 0.19 0.20 0.21 0.21 0.22 0.24 0.23 0.23 0.24 0.25 0.24 0.24 0.23 0.22 0.21
0.94 0.96 0.98 1.00 0.99 0.93 0.90 0.89 0.88 0.87 0.85 0.84 0.83 0.84 0.82 0.80 0.75 0.75 0.79 0.81 0.80 0.80 0.81 0.83 0.83 0.82 0.80 0.78 0.76 0.70 0.64 0.57 0.49 0.42 0.40 0.39 0.40 0.39 0.39 0.37 0.33 0.31 0.31 0.30 0.29 0.28 0.28 0.28 0.28 0.28 0.28 0.27 0.27 0.27 0.26 0.25 0.23 0.22 0.20 0.19 0.18 0.18 0.20 0.23 0.25 0.24 0.24 0.24 0.23 0.22 0.21 0.20 0.21 0.22 0.23 0.23 0.23 0.23 0.23 0.24 0.24 0.24 0.23 0.22 0.21
0.93 0.94 0.95 0.97 0.99 1.01 1.00 0.96 0.91 0.89 0.87 0.85 0.83 0.82 0.82 0.81 0.79 0.77 0.75 0.75 0.76 0.78 0.79 0.80 0.80 0.80 0.80 0.79 0.77 0.75 0.71 0.65 0.56 0.48 0.43 0.40 0.41 0.41 0.41 0.39 0.37 0.33 0.30 0.28 0.29 0.28 0.28 0.28 0.28 0.28 0.29 0.29 0.29 0.29 0.28 0.28 0.27 0.25 0.23 0.22 0.21 0.20 0.22 0.26 0.26 0.25 0.25 0.26 0.24 0.23 0.23 0.22 0.21 0.21 0.21 0.22 0.23 0.24 0.24 0.24 0.24 0.23 0.23 0.22 0.21
0.94 0.94 0.95 0.97 0.97 0.95 0.96 0.96 0.94 0.92 0.91 0.88 0.86 0.83 0.81 0.82 0.82 0.80 0.78 0.74 0.72 0.69 0.71 0.75 0.79 0.79 0.78 0.79 0.78 0.77 0.75 0.71 0.64 0.56 0.50 0.46 0.44 0.43 0.43 0.40 0.36 0.33 0.31 0.29 0.29 0.28 0.28 0.28 0.28 0.29 0.30 0.30 0.31 0.31 0.30 0.30 0.29 0.28 0.27 0.26 0.24 0.24 0.26 0.28 0.27 0.26 0.26 0.26 0.25 0.24 0.24 0.23 0.22 0.22 0.22 0.22 0.22 0.23 0.24 0.24 0.24 0.24 0.23 0.23 0.23
0.85 0.88 0.91 0.95 0.98 0.98 0.98 0.98 0.96 0.93 0.93 0.94 0.94 0.89 0.84 0.82 0.81 0.80 0.80 0.79 0.77 0.74 0.73 0.74 0.78 0.81 0.81 0.79 0.79 0.79 0.78 0.76 0.72 0.64 0.56 0.52 0.51 0.49 0.42 0.38 0.36 0.33 0.30 0.29 0.29 0.29 0.29 0.28 0.28 0.29 0.30 0.31 0.31 0.32 0.32 0.32 0.31 0.30 0.29 0.28 0.27 0.29 0.31 0.32 0.31 0.29 0.28 0.28 0.26 0.25 0.25 0.24 0.23 0.22 0.22 0.22 0.22 0.23 0.24 0.24 0.24 0.24 0.25 0.24 0.24
0.82 0.83 0.86 0.90 0.94 0.96 0.98 1.01 1.00 0.99 0.98 0.99 0.99 0.98 0.92 0.87 0.83 0.82 0.81 0.81 0.80 0.79 0.77 0.76 0.78 0.80 0.81 0.80 0.81 0.80 0.81 0.80 0.78 0.73 0.66 0.59 0.54 0.52 0.49 0.45 0.40 0.38 0.34 0.31 0.30 0.29 0.29 0.29 0.29 0.29 0.30 0.31 0.32 0.32 0.33 0.33 0.34 0.32 0.31 0.31 0.31 0.34 0.36 0.36 0.35 0.33 0.31 0.29 0.28 0.28 0.27 0.25 0.24 0.24 0.23 0.22 0.22 0.24 0.25 0.25 0.25 0.25 0.25 0.25 0.25
0.82 0.84 0.85 0.88 0.91 0.96 0.97 0.98 1.01 1.03 1.00 0.98 0.97 1.00 1.00 0.94 0.92 0.86 0.83 0.81 0.81 0.80 0.78 0.78 0.77 0.76 0.75 0.76 0.81 0.80 0.80 0.81 0.80 0.77 0.74 0.68 0.61 0.55 0.51 0.49 0.46 0.43 0.40 0.37 0.34 0.32 0.31 0.31 0.31 0.31 0.31 0.32 0.33 0.34 0.34 0.35 0.36 0.35 0.34 0.35 0.37 0.39 0.40 0.40 0.39 0.38 0.35 0.33 0.31 0.30 0.28 0.27 0.26 0.25 0.25 0.24 0.24 0.25 0.26 0.27 0.26 0.26 0.26 0.26 0.26
0.81 0.84 0.85 0.86 0.89 0.94 0.97 0.98 0.97 0.96 0.97 1.01 1.01 0.98 0.97 0.97 0.96 0.95 0.91 0.91 0.86 0.83 0.81 0.80 0.78 0.76 0.76 0.80 0.81 0.82 0.80 0.76 0.74 0.73 0.73 0.72 0.69 0.65 0.60 0.57 0.53 0.48 0.44 0.41 0.39 0.36 0.33 0.32 0.33 0.33 0.33 0.33 0.34 0.36 0.36 0.37 0.37 0.37 0.38 0.40 0.41 0.42 0.43 0.43 0.42 0.41 0.39 0.36 0.34 0.32 0.30 0.29 0.28 0.27 0.26 0.25 0.25 0.27 0.27 0.28 0.28 0.27 0.26 0.25 0.26
0.78 0.80 0.81 0.83 0.85 0.90 0.96 0.99 1.00 1.01 1.01 1.00 0.98 0.98 0.96 0.94 0.96 0.98 0.96 0.95 0.93 0.89 0.84 0.81 0.78 0.77 0.78 0.81 0.80 0.80 0.76 0.74 0.74 0.74 0.74 0.74 0.72 0.70 0.67 0.64 0.61 0.57 0.51 0.45 0.41 0.39 0.38 0.37 0.37 0.37 0.37 0.36 0.36 0.36 0.38 0.38 0.38 0.39 0.41 0.42 0.42 0.43 0.44 0.45 0.45 0.44 0.42 0.41 0.38 0.36 0.33 0.31 0.30 0.29 0.28 0.27 0.27 0.28 0.28 0.28 0.28 0.28 0.27 0.26 0.26
0.77 0.80 0.81 0.82 0.84 0.88 0.92 0.95 0.96 0.97 0.99 1.00 1.00 0.99 0.98 0.96 0.94 0.95 0.96 0.96 0.95 0.93 0.90 0.86 0.83 0.82 0.82 0.80 0.81 0.81 0.78 0.75 0.75 0.75 0.75 0.74 0.73 0.71 0.69 0.67 0.66 0.64 0.61 0.56 0.49 0.44 0.41 0.40 0.40 0.40 0.40 0.39 0.38 0.37 0.38 0.39 0.39 0.40 0.41 0.43 0.44 0.44 0.44 0.45 0.45 0.45 0.45 0.43 0.42 0.39 0.37 0.35 0.33 0.31 0.29 0.28 0.29 0.29 0.30 0.31 0.31 0.30 0.30 0.29 0.28
0.71 0.75 0.77 0.79 0.82 0.85 0.88 0.89 0.90 0.93 0.95 0.96 0.95 0.97 0.98 0.97 0.98 0.98 0.98 0.97 0.95 0.94 0.93 0.89 0.86 0.86 0.85 0.83 0.81 0.81 0.80 0.79 0.78 0.76 0.75 0.75 0.74 0.73 0.72 0.71 0.70 0.67 0.65 0.63 0.59 0.53 0.48 0.44 0.43 0.42 0.42 0.42 0.42 0.40 0.39 0.39 0.40 0.40 0.41 0.42 0.44 0.45 0.45 0.44 0.44 0.44 0.44 0.44 0.43 0.42 0.41 0.39 0.36 0.35 0.33 0.31 0.31 0.31 0.31 0.32 0.32 0.32 0.32 0.32 0.31
0.67 0.71 0.74 0.75 0.77 0.79 0.81 0.84 0.87 0.87 0.88 0.90 0.93 0.96 0.97 0.98 0.97 0.96 0.96 0.97 0.96 0.95 0.94 0.92 0.89 0.87 0.86 0.86 0.84 0.82 0.81 0.80 0.78 0.77 0.76 0.75 0.75 0.75 0.75 0.74 0.73 0.72 0.70 0.68 0.67 0.63 0.57 0.52 0.48 0.45 0.44 0.44 0.44 0.44 0.42 0.40 0.39 0.40 0.41 0.42 0.43 0.44 0.45 0.45 0.44 0.44 0.44 0.44 0.44 0.43 0.43 0.42 0.40 0.38 0.37 0.35 0.34 0.33 0.33 0.33 0.33 0.33 0.33 0.33 0.32
0.59 0.66 0.70 0.72 0.75 0.78 0.80 0.82 0.83 0.86 0.86 0.87 0.89 0.90 0.91 0.94 0.96 0.96 0.95 0.95 0.95 0.96 0.96 0.94 0.91 0.88 0.86 0.86 0.86 0.83 0.81 0.80 0.80 0.78 0.78 0.77 0.76 0.75 0.75 0.76 0.76 0.75 0.74 0.73 0.72 0.70 0.66 0.60 0.55 0.52 0.49 0.48 0.47 0.47 0.47 0.46 0.43 0.41 0.40 0.40 0.42 0.43 0.44 0.44 0.44 0.44 0.44 0.43 0.43 0.44 0.44 0.44 0.43 0.42 0.40 0.39 0.37 0.35 0.35 0.35 0.35 0.35 0.35 0.35 0.34
0.56 0.62 0.67 0.70 0.73 0.75 0.77 0.78 0.79 0.81 0.84 0.86 0.87 0.88 0.90 0.92 0.92 0.94 0.95 0.94 0.94 0.95 0.96 0.95 0.93 0.90 0.88 0.86 0.85 0.83 0.82 0.80 0.80 0.79 0.78 0.78 0.77 0.76 0.77 0.77 0.77 0.76 0.76 0.76 0.76 0.75 0.73 0.70 0.64 0.59 0.54 0.52 0.50 0.49 0.48 0.49 0.48 0.47 0.44 0.42 0.41 0.41 0.43 0.44 0.45 0.45 0.45 0.44 0.44 0.44 0.45 0.45 0.44 0.44 0.44 0.43 0.40 0.38 0.36 0.36 0.35 0.35 0.35 0.35 0.35
0.55 0.61 0.66 0.69 0.70 0.72 0.74 0.76 0.78 0.79 0.80 0.81 0.82 0.83 0.85 0.87 0.90 0.91 0.92 0.93 0.93 0.92 0.93 0.94 0.94 0.92 0.89 0.87 0.86 0.85 0.84 0.83 0.81 0.80 0.79 0.78 0.77 0.76 0.77 0.76 0.77 0.77 0.77 0.77 0.78 0.78 0.78 0.76 0.73 0.69 0.63 0.58 0.54 0.52 0.50 0.50 0.50 0.50 0.49 0.47 0.44 0.43 0.44 0.45 0.46 0.46 0.46 0.45 0.44 0.44 0.45 0.45 0.46 0.46 0.45 0.45 0.44 0.42 0.39 0.38 0.37 0.36 0.36 0.36 0.35
0.56 0.59 0.61 0.64 0.67 0.70 0.72 0.75 0.77 0.78 0.80 0.81 0.81 0.81 0.82 0.84 0.86 0.87 0.89 0.91 0.92 0.94 0.93 0.92 0.92 0.91 0.90 0.88 0.87 0.86 0.86 0.84 0.82 0.81 0.80 0.79 0.78 0.77 0.76 0.76 0.76 0.76 0.76 0.76 0.77 0.77 0.79 0.79 0.78 0.76 0.73 0.68 0.63 0.58 0.54 0.52 0.51 0.50 0.51 0.51 0.49 0.47 0.46 0.46 0.46 0.46 0.46 0.45 0.45 0.44 0.44 0.45 0.46 0.47 0.47 0.47 0.46 0.45 0.43 0.41 0.39 0.38 0.38 0.38 0.37
0.58 0.59 0.59 0.62 0.65 0.68 0.72 0.74 0.75 0.76 0.77 0.78 0.80 0.82 0.82 0.83 0.84 0.83 0.85 0.86 0.88 0.89 0.91 0.91 0.92 0.93 0.93 0.91 0.89 0.89 0.89 0.88 0.86 0.84 0.83 0.81 0.80 0.79 0.79 0.78 0.77 0.77 0.77 0.76 0.76 0.76 0.76 0.77 0.79 0.79 0.78 0.76 0.72 0.67 0.62 0.58 0.55 0.53 0.52 0.51 0.51 0.50 0.49 0.48 0.47 0.47 0.47 0.46 0.45 0.44 0.44 0.44 0.45 0.46 0.47 0.47 0.47 0.47 0.47 0.45 0.43 0.42 0.41 0.40 0.40
0.56 0.58 0.60 0.62 0.63 0.66 0.68 0.70 0.71 0.73 0.73 0.75 0.76 0.77 0.79 0.81 0.82 0.83 0.84 0.84 0.84 0.84 0.85 0.87 0.91 0.94 0.92 0.91 0.90 0.88 0.88 0.88 0.88 0.86 0.84 0.83 0.82 0.81 0.80 0.79 0.79 0.79 0.78 0.77 0.77 0.77 0.77 0.77 0.77 0.78 0.79 0.79 0.79 0.76 0.72 0.67 0.62 0.58 0.54 0.52 0.51 0.51 0.51 0.51 0.50 0.49 0.49 0.48 0.47 0.46 0.45 0.44 0.44 0.45 0.47 0.48 0.48 0.49 0.49 0.49 0.47 0.45 0.44 0.42 0.41
0.54 0.57 0.59 0.61 0.62 0.63 0.67 0.69 0.70 0.70 0.72 0.73 0.73 0.74 0.76 0.78 0.79 0.80 0.83 0.84 0.83 0.82 0.82 0.84 0.87 0.91 0.93 0.92 0.89 0.89 0.87 0.86 0.86 0.86 0.86 0.85 0.83 0.82 0.81 0.79 0.79 0.79 0.79 0.78 0.78 0.79 0.79 0.78 0.78 0.78 0.78 0.78 0.80 0.81 0.79 0.76 0.71 0.66 0.61 0.57 0.54 0.53 0.52 0.52 0.52 0.51 0.51 0.50 0.49 0.48 0.47 0.46 0.45 0.46 0.47 0.48 0.49 0.49 0.49 0.49 0.50 0.49 0.47 0.45 0.44
0.55 0.56 0.58 0.60 0.62 0.64 0.66 0.66 0.67 0.69 0.70 0.71 0.72 0.73 0.75 0.76 0.76 0.77 0.79 0.81 0.82 0.81 0.81 0.82 0.84 0.88 0.90 0.90 0.91 0.90 0.90 0.89 0.88 0.87 0.86 0.86 0.85 0.83 0.82 0.80 0.78 0.78 0.79 0.80 0.80 0.80 0.80 0.79 0.79 0.79 0.78 0.79 0.79 0.80 0.80 0.81 0.79 0.75 0.69 0.64 0.59 0.55 0.54 0.53 0.52 0.52 0.51 0.50 0.50 0.50 0.49 0.47 0.46 0.46 0.46 0.47 0.48 0.49 0.50 0.50 0.50 0.51 0.51 0.49 0.47
Wind_Speed
14 14 13 13 12 12 12 12 11 11 11 11 11 10 10 10 10 10 10 10 10 10 9 9 9 8 8 8 7 7 7 7 7 7 7 7 6 6 5 4 4 4 4 4 4 3 3 4 4 4 4 4 4 4 5 5 4 4 4 4 4 4 4 3 3 2 2 2 3 3 3 3 4 4 4 5 5 5 6 6 7 7 7 8 8
15 14 13 13 12 12 12 12 11 11 11 11 11 10 10 10 10 11 11 10 10 9 9 9 8 7 7 7 7 6 6 6 7 7 6 5 5 4 4 3 3 3 2 2 2 2 2 3 3 3 3 3 2 2 2 2 2 2 3 4 4 4 3 2 2 2 1 2 2 3 3 3 3 3 3 4 4 4 5 6 6 7 7 7 8
15 14 13 12 12 12 12 12 11 11 11 11 11 10 10 10 11 11 11 10 9 9 9 8 7 7 6 6 6 6 6 6 6 6 5 4 4 4 3 3 2 2 1 1 1 2 2 2 3 3 3 3 3 3 3 3 3 4 4 4 4 3 2 2 1 1 0 1 2 2 2 2 2 2 2 3 3 4 5 5 6 7 7 7 8
14 14 13 12 12 12 12 12 11 11 11 11 11 10 10 10 11 11 10 9 9 9 8 7 6 6 6 6 5 5 5 5 5 5 4 4 3 3 3 2 2 1 1 1 2 2 3 3 3 4 4 5 5 4 4 3 4 4 4 4 4 3 2 2 1 1 1 1 1 1 1 1 1 2 2 2 3 4 5 5 6 7 7 7 7
14 14 13 12 12 11 11 11 11 11 11 11 11 10 10 10 10 10 10 9 9 8 7 6 6 6 5 5 5 5 5 5 4 4 4 3 3 2 2 1 1 0 1 2 3 3 4 4 5 5 5 5 5 4 4 4 4 4 5 4 4 4 3 2 2 1 2 2 2 2 2 2 2 2 2 2 3 4 5 5 6 7 7 7 7
13 13 13 12 12 12 11 11 11 10 11 11 10 10 10 10 10 10 9 8 8 7 5 5 5 5 5 5 5 5 4 4 3 3 3 2 2 2 1 1 1 2 3 3 4 4 5 6 6 6 5 5 5 4 4 4 4 4 4 4 4 3 3 3 2 2 2 2 2 3 3 3 2 2 2 3 3 4 5 6 6 7 7 7 7
13 13 13 12 12 12 12 12 11 11 11 10 10 9 9 9 9 9 9 8 7 6 5 5 5 5 6 5 5 4 4 3 3 2 2 2 2 1 1 2 2 3 4 5 6 6 6 6 6 6 5 5 5 5 5 5 4 4 4 4 3 3 3 2 2 3 3 3 3 3 3 3 3 3 2 3 3 4 5 6 6 7 7 7 7
14 14 13 12 12 12 12 12 11 11 10 10 10 9 9 9 9 9 9 7 6 5 5 5 5 5 5 5 4 4 4 3 3 2 2 1 1 1 2 3 3 4 5 6 7 7 7 6 6 6 6 6 6 5 5 5 4 5 4 4 3 3 3 2 2 2 2 2 2 2 2 2 3 3 3 3 3 4 5 5 6 6 6 6 7
13 13 13 13 12 12 12 11 11 10 10 10 9 9 9 9 9 9 8 7 6 5 5 5 5 5 5 5 5 4 4 4 3 2 1 1 1 2 3 3 4 5 6 7 7 7 7 7 7 7 7 7 6 6 5 5 5 5 4 4 3 3 3 2 2 2 2 3 2 2 2 2 2 2 3 3 3 4 5 5 5 5 5 6 7
12 12 13 12 12 12 11 11 10 10 10 9 9 9 9 9 9 8 8 6 5 5 5 5 6 6 6 5 5 5 4 4 3 3 2 1 1 2 3 4 5 6 7 7 8 7 7 7 7 7 7 7 6 6 6 5 5 4 4 3 3 2 2 2 2 2 2 3 3 2 2 3 2 2 2 3 4 4 4 5 5 4 4 5 6
13 12 13 12 11 11 11 11 11 10 10 9 9 9 9 9 8 8 7 7 6 6 6 6 6 6 6 5 5 5 4 4 4 4 3 3 2 2 3 4 5 6 7 7 7 7 7 7 7 7 6 6 6 6 6 5 5 4 4 3 3 3 2 2 2 3 3 3 3 3 3 3 3 2 2 3 3 4 4 4 5 4 3 3 5
13 13 13 12 11 11 11 11 11 11 10 10 10 9 9 9 8 8 7 7 6 6 6 6 6 6 5 5 5 5 5 5 5 5 5 4 4 3 3 4 5 6 7 7 7 7 7 6 6 5 5 5 5 5 5 5 5 5 4 4 4 4 4 3 3 3 3 3 3 3 3 3 3 3 3 3 3 4 4 4 4 4 3 4 4
15 14 14 13 12 11 11 11 11 11 11 10 10 9 9 9 8 8 7 7 6 6 6 6 6 6 5 5 5 5 5 5 5 5 6 6 5 4 4 4 5 6 7 7 7 7 6 6 5 4 4 5 5 4 4 4 4 4 4 5 5 5 5 5 4 4 3 3 3 3 3 3 3 3 3 3 3 3 3 3 4 5 4 5 5
15 15 15 14 13 12 11 11 11 12 11 10 10 10 9 9 8 8 7 7 6 6 6 7 6 6 6 5 5 6 6 6 6 6 7 7 6 5 5 5 5 6 7 7 7 7 6 6 5 4 4 4 4 3 3 3 3 4 4 4 4 5 5 5 5 5 4 4 3 3 3 3 3 3 3 3 2 2 3 3 3 4 4 5 5
16 16 16 15 14 13 12 12 11 12 11 11 10 10 9 9 8 8 7 7 7 6 7 7 7 7 6 6 6 6 6 6 6 7 7 7 7 6 6 5 6 6 7 7 7 6 6 5 5 4 3 3 3 3 2 2 2 3 3 4 4 4 5 5 5 5 5 4 4 4 3 3 3 3 3 3 3 2 2 2 3 3 4 5 5
16 16 16 16 15 14 13 12 12 12 12 11 11 11 10 10 9 8 8 7 7 7 7 7 7 7 7 6 7 7 7 7 7 7 8 8 7 7 7 7 7 7 7 7 7 7 6 6 5 4 4 3 3 2 1 1 1 2 3 3 4 4 4 4 4 4 5 5 5 5 4 4 4 3 3 3 3 2 2 2 3 3 3 4 5
16 16 16 17 16 15 14 13 13 12 12 12 12 11 11 11 10 9 8 8 8 7 7 7 8 8 7 7 7 8 8 7 7 8 8 9 8 7 7 8 8 8 7 7 7 7 6 6 5 5 4 3 3 2 1 0 1 1 2 2 3 3 3 3 4 4 4 5 5 5 5 5 5 4 3 3 3 2 2 2 3 4 4 4 4
16 16 17 17 17 16 15 15 14 13 13 13 13 12 12 12 11 10 9 9 9 8 7 7 8 9 8 8 8 8 8 8 8 8 9 10 9 8 8 8 8 8 8 8 8 7 7 7 6 6 5 4 4 3 2 1 1 1 1 2 2 2 3 3 3 4 4 4 4 5 5 5 5 5 4 3 3 2 3 3 4 4 4 4 3
17 17 17 17 17 17 16 16 15 15 14 14 14 13 13 13 12 11 10 10 9 9 8 8 8 9 9 8 9 9 9 9 9 9 10 10 10 9 9 9 9 9 9 9 8 8 8 7 7 7 6 5 4 4 3 3 2 1 2 2 2 2 3 3 3 4 4 4 4 4 5 5 5 5 5 4 3 2 3 3 4 4 4 4 3
17 17 17 17 17 17 17 17 16 16 16 15 15 14 14 13 13 12 12 11 10 10 10 9 9 9 9 9 9 9 9 10 10 10 10 11 11 10 10 10 10 10 10 10 9 9 9 8 8 8 7 6 5 4 4 4 3 3 2 2 2 3 3 4 4 4 4 4 4 4 5 5 5 5 5 5 4 3 3 3 4 4 4 3 3
18 19 18 18 18 19 18 18 17 17 17 17 16 15 15 14 14 14 13 12 12 11 11 10 10 10 10 10 10 10 10 10 11 11 11 11 12 11 11 11 11 11 11 10 10 10 10 9 9 9 8 7 6 5 5 4 4 4 4 3 3 3 4 4 4 4 4 4 4 4 4 5 5 5 5 5 4 4 4 3 3 3 3 3 3
19 19 19 19 20 21 21 19 18 18 18 17 17 17 16 15 15 15 15 14 13 13 12 12 11 10 10 10 11 11 11 11 11 12 12 12 12 12 12 12 12 11 11 11 11 11 11 10 10 9 9 8 8 7 6 6 5 5 5 4 4 4 4 5 4 4 4 4 4 4 4 4 4 4 4 4 4 4 4 4 4 4 4 3 3
19 19 19 19 19 21 22 21 20 19 19 18 18 18 17 16 16 16 16 15 15 14 14 13 13 12 11 11 11 11 11 12 12 13 13 13 13 13 13 13 13 12 12 11 11 11 11 11 11 10 10 9 9 8 7 7 6 6 6 5 5 5 5 5 5 4 4 4 4 4 4 4 4 3 3 3 3 3 3 3 3 3 4 4 4
19 20 20 20 19 20 22 22 21 20 20 19 19 19 18 18 17 17 17 17 16 16 15 15 14 14 13 12 12 12 12 12 13 13 14 14 14 14 14 14 14 14 13 12 12 11 11 12 11 11 11 10 10 9 8 8 7 7 7 6 6 6 6 5 5 5 5 5 5 5 5 4 4 3 3 3 3 3 3 2 2 2 3 4 4
19 20 20 20 20 20 21 22 21 21 21 20 20 20 20 19 18 18 18 18 18 17 17 16 16 15 14 14 13 13 13 13 14 14 14 15 15 15 15 15 15 15 14 14 13 12 12 12 12 12 12 11 11 10 10 9 8 8 8 7 7 7 7 7 6 6 6 6 5 5 5 4 4 3 4 4 3 3 3 2 1 2 2 3 3
20 20 20 20 20 20 20 21 21 22 22 21 21 21 21 20 20 19 19 19 19 18 18 18 17 17 16 15 15 14 14 14 15 15 15 15 16 16 16 16 16 16 16 15 14 14 13 13 12 12 12 12 12 11 11 10 10 9 9 8 8 8 8 8 8 7 7 7 6 6 5 5 4 4 4 4 4 4 3 2 2 1 1 2 3
21 20 20 20 20 20 21 21 21 21 22 22 22 21 21 21 20 20 20 20 20 19 19 19 18 18 18 17 16 16 16 16 16 16 16 16 16 17 17 17 17 17 16 16 16 15 14 14 14 13 13 13 12 12 12 11 11 10 10 10 10 9 9 9 9 8 8 8 7 6 6 6 5 5 4 4 4 4 4 3 2 2 1 1 1
22 21 21 21 20 21 21 22 21 21 21 22 22 22 22 21 21 21 21 21 21 20 20 19 19 19 19 18 18 17 17 17 17 17 17 17 17 17 18 18 18 18 17 17 16 16 16 15 15 15 14 14 13 13 13 13 12 12 12 11 11 11 10 10 10 9 9 9 8 8 7 7 6 6 5 5 4 4 4 4 3 3 2 1 1
23 23 22 22 22 22 22 22 22 22 22 22 22 22 22 22 22 22 22 22 22 21 21 20 20 20 20 20 19 18 18 19 19 19 18 18 18 18 18 18 18 18 18 18 17 17 17 17 17 16 16 15 15 15 15 14 14 14 13 13 12 12 12 11 11 11 10 10 9 9 9 8 7 7 6 5 5 5 5 4 4 3 3 2 2
24 24 24 23 23 23 23 23 22 22 22 22 22 23 23 23 23 22 22 22 22 22 22 21 21 21 21 20 20 20 20 19 19 20 20 20 19 19 19 19 19 19 19 19 18 18 18 18 18 18 17 17 17 16 16 16 15 15 15 15 14 13 13 13 12 12 11 11 10 10 10 9 9 8 7 6 6 6 5 5 5 4 4 3 3
27 26 26 25 25 24 24 23 23 23 23 23 23 23 23 23 23 23 23 23 23 23 22 22 22 21 21 21 20 21 20 20 20 21 21 20 20 20 20 20 20 20 19 19 19 19 19 19 19 19 18 18 18 17 17 17 16 16 16 16 15 15 14 14 14 13 12 11 11 11 10 10 10 9 8 7 7 7 6 6 5 5 5 4 4
28 28 28 27 27 26 26 25 24 24 24 24 24 23 23 22 23 23 23 23 23 23 23 22 22 22 22 21 21 21 20 20 21 21 22 21 21 21 21 21 21 20 20 20 20 20 20 20 20 19 19 19 19 18 18 17 17 17 16 16 16 16 15 15 14 13 12 12 12 12 11 11 11 10 9 9 8 8 8 7 7 6 6 6 5
29 29 29 28 28 27 27 26 26 25 25 25 24 24 24 23 23 23 23 23 23 24 24 23 23 23 23 23 22 21 20 20 20 21 22 22 22 21 21 21 22 21 21 21 21 21 21 21 21 20 20 20 19 19 18 18 18 17 17 17 17 16 15 15 14 14 13 13 13 12 12 12 12 11 10 10 9 9 9 8 8 8 7 7 6
29 30 30 30 29 29 29 28 28 27 26 26 26 25 25 24 24 23 23 23 23 23 24 24 24 24 24 24 23 22 21 21 21 21 22 22 22 22 21 21 22 22 22 22 22 22 22 22 22 21 21 21 20 20 19 19 18 18 18 17 17 16 15 15 15 14 14 14 13 13 13 12 12 12 11 11 11 10 10 10 9 9 8 8 8
29 29 30 30 31 31 31 31 30 29 28 27 27 26 26 26 25 24 24 23 23 23 24 24 25 25 25 25 25 24 23 22 21 21 21 22 22 22 21 21 21 22 23 23 23 23 23 23 22 22 22 21 21 21 20 20 19 19 18 18 17 16 16 15 15 15 14 14 14 13 13 13 13 13 12 12 12 11 11 11 10 10 9 9 8
30 30 30 30 31 32 32 32 32 31 30 29 29 28 27 27 26 26 25 25 24 24 24 24 24 25 25 25 26 26 25 24 23 22 22 22 22 22 22 22 22 22 23 23 24 24 23 23 23 23 22 22 22 22 21 21 20 19 19 18 17 17 16 16 15 15 14 14 14 13 13 13 13 13 13 13 13 12 12 11 11 10 10 10 9
30 31 31 31 31 31 31 32 33 33 32 31 30 29 29 28 28 27 26 26 25 25 25 24 24 24 25 25 26 27 26 25 24 24 23 22 22 23 23 23 23 23 23 24 24 24 24 24 24 23 23 23 22 22 21 21 20 19 19 18 18 17 17 16 15 15 14 14 14 14 13 13 13 13 13 13 13 13 12 12 12 11 11 10 10
30 31 31 31 31 31 31 31 32 33 33 33 32 31 30 30 30 29 28 27 27 26 26 25 25 25 26 26 26 27 26 26 25 25 24 24 24 24 24 24 24 24 24 24 24 23 23 23 23 23 23 22 22 22 21 21 20 19 19 18 18 17 17 17 16 15 15 15 14 14 14 13 13 13 13 13 13 13 13 13 12 12 12 11 11
31 31 32 32 32 31 31 31 31 32 32 33 33 32 31 31 30 30 29 29 28 28 27 26 26 26 27 27 26 26 27 27 27 26 26 25 25 25 24 24 24 24 24 24 24 24 23 23 23 23 23 22 22 22 21 21 20 19 19 18 18 18 17 17 17 16 16 16 15 15 14 14 13 13 13 13 13 13 13 13 13 12 12 12 12
31 31 32 32 32 32 31 31 31 31 31 32 33 33 32 32 32 31 31 30 30 29 29 28 28 27 27 27 27 27 28 28 28 28 28 27 27 26 26 25 25 25 25 25 25 25 24 23 23 23 23 22 22 22 21 21 20 20 19 19 19 19 18 18 18 17 17 17 16 16 15 15 14 14 14 14 14 14 14 13 13 13 12 12 12
31 31 31 31 32 32 32 31 31 31 32 32 33 33 33 33 33 33 33 32 31 31 30 30 29 29 28 28 29 29 29 29 29 29 29 29 29 28 28 27 27 27 27 26 26 26 25 24 24 23 23 23 23 22 22 22 21 21 20 20 20 20 19 19 19 18 18 18 17 17 16 16 15 15 15 15 14 14 14 14 13 13 12 12 12
31 31 31 31 31 32 33 33 33 33 32 32 32 33 34 34 33 33 33 34 33 32 32 31 31 30 30 30 30 31 31 30 30 30 30 30 30 30 29 29 28 28 28 28 27 27 26 26 25 25 24 24 24 23 23 23 22 22 22 22 21 21 21 21 20 20 19 19 19 18 18 17 16 16 16 15 15 15 15 14 14 14 13 13 13
32 32 32 32 32 32 33 33 33 34 34 33 33 33 34 34 33 32 33 33 34 34 33 32 31 31 31 31 31 31 31 31 30 30 31 31 31 31 31 30 30 29 29 29 29 28 28 27 27 26 26 25 25 25 24 24 24 24 24 23 23 22 22 21 21 21 20 20 20 19 19 18 18 17 17 16 16 16 16 15 15 15 14 14 14
32 33 33 32 32 32 33 33 33 34 34 34 34 34 34 34 34 33 32 32 33 34 34 33 32 32 32 31 31 31 31 31 31 31 31 31 31 31 31 31 31 31 30 30 30 30 29 29 29 28 28 27 27 27 26 26 26 25 25 25 24 24 23 22 22 21 21 20 20 20 20 19 19 19 18 18 18 17 17 16 16 16 15 15 15
32 33 33 33 32 33 33 33 33 33 33 34 34 34 34 34 34 34 34 33 33 33 34 34 34 34 34 33 32 32 32 32 31 32 32 32 32 32 32 32 32 32 32 31 30 30 30 30 30 30 30 29 29 28 28 28 28 27 27 26 26 25 25 24 23 22 22 21 21 21 20 20 20 20 20 20 19 19 19 18 17 17 17 16 16
32 32 32 32 32 33 33 33 33 33 33 33 34 34 34 34 34 35 35 34 34 34 34 35 35 35 35 34 34 34 33 32 32 32 32 32 32 32 32 32 32 32 32 32 32 32 31 31 32 32 31 31 30 30 30 30 29 29 28 28 28 27 26 26 25 24 23 23 22 22 22 22 21 21 21 21 21 21 20 20 19 19 18 18 17
32 32 32 32 32 32 33 33 33 33 33 33 33 33 34 34 34 35 35 36 35 35 34 34 35 35 35 35 35 35 35 34 33 33 32 32 32 32 32 32 32 32 32 32 33 33 33 32 33 33 33 32 32 31 31 31 31 30 30 30 29 29 28 27 27 26 26 25 25 24 23 23 23 23 22 22 22 22 22 21 21 20 19 19 19
32 32 32 32 32 32 32 32 33 33 33 33 33 33 33 33 34 34 35 36 36 36 35 34 34 34 35 35 36 36 36 35 35 34 34 34 33 32 32 32 32 32 32 32 33 33 33 33 33 34 33 33 33 32 32 32 32 32 31 31 31 31 30 29 29 28 28 27 27 26 26 25 24 24 24 23 23 23 23 23 22 21 21 20 20
32 32 32 32 32 32 32 32 33 33 33 33 33 33 33 33 34 34 34 35 35 36 36 35 34 34 34 35 36 36 36 37 37 36 35 35 34 34 33 33 33 33 33 33 33 33 33 34 34 34 34 34 34 34 34 33 33 33 33 33 33 33 32 32 31 30 30 29 29 28 27 27 26 26 25 25 25 24 24 24 23 22 22 21 21
33 33 32 32 32 33 33 33 33 33 33 33 33 33 33 33 33 34 34 35 35 35 36 36 36 35 35 35 35 36 36 37 37 37 37 36 35 35 35 34 34 34 34 34 34 33 33 34 34 35 35 35 35 35 35 35 35 35 35 35 35 35 35 35 34 33 32 31 30 30 29 28 28 28 27 26 26 26 26 25 25 24 23 23 22
33 33 33 32 32 32 32 33 33 33 33 32 32 33 33 33 33 33 34 34 35 35 35 36 36 36 36 37 37 37 37 37 37 37 37 37 37 36 36 35 35 35 34 34 34 34 33 33 34 34 34 35 35 36 36 36 37 37 36 36 36 37 37 37 36 35 34 33 32 31 31 30 29 29 29 28 28 28 27 27 26 25 24 24 24
Wind_Direction
252 256 260 265 269 273 277 279 280 283 286 288 290 291 293 295 295 301 306 304 301 299 292 287 286 285 287 287 287 291 297 303 307 311 312 308 303 299 295 296 296 291 283 276 270 258 242 230 221 219 220 223 228 234 241 245 246 246 237 219 204 200 202 199 197 205 239 264 266 274 279 283 296 307 309 313 320 326 331 333 334 334 334 334 336
250 253 258 263 267 270 273 276 276 279 284 287 288 290 293 295 297 301 304 304 302 297 291 287 283 281 281 281 283 289 297 304 309 313 314 311 307 302 298 300 303 301 294 277 259 236 215 201 195 200 205 205 203 196 190 190 184 168 161 162 157 159 170 171 175 189 229 278 281 283 286 288 297 310 315 318 327 335 339 342 343 343 343 342 342
249 251 255 261 266 268 270 272 274 276 280 283 286 289 293 297 298 300 302 302 300 295 290 286 280 276 276 276 278 285 295 303 307 310 313 314 310 303 299 299 302 304 298 255 204 179 170 171 172 174 170 158 144 137 131 128 133 134 137 146 145 142 150 156 159 170 195 303 303 299 299 304 320 338 344 347 352 352 348 347 347 347 347 346 347
249 250 253 260 265 267 268 270 272 274 277 279 283 289 296 300 301 301 303 302 298 294 289 282 274 270 270 270 275 283 292 299 303 305 311 316 315 311 309 304 299 288 231 174 160 158 156 154 151 147 144 139 132 129 126 120 122 126 129 134 135 132 131 128 118 113 109 75 24 7 359 2 20 21 19 17 8 0 355 351 349 350 350 349 351
247 248 252 257 261 264 267 270 271 272 274 276 281 289 298 304 304 304 305 303 298 294 288 278 269 263 261 264 272 282 291 296 298 301 309 317 324 332 333 324 313 180 158 155 152 151 147 141 138 137 136 134 129 124 120 118 122 126 127 127 129 128 125 117 103 90 87 82 69 60 55 54 53 42 32 26 17 10 5 357 355 356 356 354 357
247 248 250 253 257 261 265 267 269 271 272 274 280 289 297 303 306 307 306 304 297 291 283 275 266 255 254 261 271 282 291 294 295 300 307 319 339 358 16 58 95 116 131 139 141 139 137 136 133 132 132 129 127 123 119 116 120 123 124 126 127 125 118 107 95 85 78 73 72 71 64 60 60 48 28 22 23 22 17 8 5 5 2 1 3
249 248 249 252 255 258 262 265 266 268 271 273 279 288 294 299 306 309 309 304 295 285 276 269 259 249 251 260 268 279 287 288 293 300 304 320 356 27 71 96 106 116 123 128 132 133 133 134 131 128 127 126 125 122 118 116 114 113 115 117 117 112 105 94 81 73 66 62 61 61 58 57 56 47 25 14 18 21 19 16 15 13 10 10 12
248 247 248 251 255 257 260 263 264 264 267 271 277 285 291 297 304 310 310 303 291 280 268 258 252 247 248 254 262 270 275 275 279 286 291 311 26 84 109 113 115 121 123 124 126 128 128 129 128 125 123 121 122 120 117 115 111 106 103 104 102 95 90 81 64 51 45 43 40 38 42 45 44 42 35 27 23 17 13 15 18 19 20 22 23
245 244 245 250 255 256 257 260 260 261 263 267 275 283 289 294 301 309 312 302 284 274 264 253 249 245 243 248 257 262 262 259 258 259 257 258 118 123 126 124 123 126 127 127 125 125 124 124 123 121 116 113 113 114 112 110 106 102 100 96 90 81 72 60 43 33 30 28 26 28 35 31 25 31 35 29 18 8 7 12 15 18 26 32 31
246 244 245 250 254 254 254 256 256 257 260 266 273 281 287 292 297 305 310 302 281 267 259 254 250 243 240 246 253 255 251 246 242 233 221 209 175 150 141 137 133 133 132 130 128 127 125 123 119 114 111 108 107 108 107 103 99 96 93 87 77 67 58 44 31 26 24 25 25 31 37 28 14 15 20 13 5 4 8 12 13 15 24 33 32
249 247 247 251 253 252 252 253 253 254 258 264 271 277 283 288 293 298 305 301 282 263 255 256 252 243 239 243 248 246 240 236 230 219 207 199 191 174 158 151 146 143 141 138 137 135 130 125 119 113 109 108 106 105 102 99 93 87 79 70 60 49 42 37 33 30 29 31 32 33 33 25 10 4 5 4 3 4 7 10 16 17 13 17 20
247 248 249 251 252 253 252 251 252 253 256 262 268 273 279 284 287 291 297 297 281 262 255 255 251 242 238 240 243 240 234 230 225 215 206 199 196 190 175 166 160 157 155 152 149 145 138 131 125 118 114 111 108 105 100 94 87 80 71 61 54 47 40 35 33 33 35 38 36 30 24 17 8 360 358 360 359 359 3 11 21 25 19 13 9
246 247 248 249 251 253 253 252 251 252 255 259 264 269 274 279 281 284 289 290 281 266 256 252 249 243 238 239 240 235 230 229 224 214 207 201 199 198 189 179 172 169 168 165 161 155 148 142 135 126 119 115 111 106 99 91 81 74 66 57 51 48 45 41 37 35 32 30 29 23 13 6 2 355 350 352 350 351 1 11 19 26 29 23 13
244 244 246 248 249 250 252 252 251 252 254 256 258 263 268 273 276 280 282 281 278 268 255 249 248 243 238 240 238 232 229 229 224 214 207 203 201 201 198 189 180 175 175 174 170 164 161 158 151 141 133 126 118 108 99 91 78 67 58 51 46 42 42 41 40 36 29 23 21 16 6 0 356 349 344 344 340 340 354 6 10 19 28 26 15
243 243 244 246 247 247 249 250 250 250 251 252 254 257 263 268 270 274 276 274 274 270 257 249 247 242 240 240 236 230 230 230 225 217 210 205 202 202 201 196 190 185 181 180 178 174 174 174 168 159 152 144 135 121 104 89 75 60 50 45 41 36 35 36 36 36 32 26 22 16 8 360 350 342 339 335 327 325 342 359 360 4 16 21 14
241 241 242 244 244 244 246 248 248 248 249 250 251 254 259 263 264 268 270 269 269 269 260 250 246 242 241 239 234 230 231 231 227 220 212 206 204 204 202 199 198 195 191 188 186 183 183 185 183 178 174 169 166 156 136 94 62 50 40 34 33 30 30 31 32 33 31 27 24 18 12 4 353 346 341 331 323 319 331 347 346 347 359 9 9
240 240 241 242 242 243 244 244 244 246 248 248 249 252 256 259 261 262 264 262 262 264 261 253 247 244 241 239 234 231 231 231 228 221 214 209 206 206 204 203 202 200 198 196 194 191 192 194 195 195 193 193 198 197 195 230 11 29 26 22 21 18 16 17 19 20 19 17 15 12 9 5 359 355 350 336 321 308 309 323 328 333 346 358 4
240 240 240 241 241 242 242 241 241 244 247 248 249 251 254 256 257 258 258 258 258 260 261 256 249 246 243 239 235 232 232 231 227 222 217 212 210 211 209 207 205 202 201 201 200 199 200 201 202 205 208 211 213 211 216 243 288 332 350 355 357 352 348 349 354 357 358 359 0 1 2 3 1 3 4 356 334 309 304 310 313 325 343 351 359
240 239 240 242 242 241 239 239 241 244 247 249 250 250 252 253 254 254 255 256 256 256 258 257 252 248 245 240 236 233 232 231 227 224 219 214 214 216 214 211 208 204 203 204 205 205 207 208 208 211 214 218 220 218 225 242 263 290 314 327 331 327 325 328 335 339 340 342 346 351 357 2 3 6 10 9 0 340 322 314 313 319 332 339 348
243 243 244 245 244 241 239 239 242 245 247 248 249 250 250 250 251 251 251 253 254 253 254 255 254 251 247 242 238 235 233 231 228 225 221 217 216 218 217 215 212 208 208 209 209 210 212 215 216 216 217 220 224 227 235 247 262 281 296 305 313 314 314 317 323 328 331 334 339 347 357 0 1 5 11 13 12 6 353 340 332 330 335 343 354
248 247 248 248 245 241 240 242 243 245 248 249 249 249 248 248 248 248 248 249 250 250 251 252 253 251 248 245 240 236 233 231 228 226 223 220 218 219 220 220 217 213 213 215 216 216 216 219 222 222 221 223 226 233 243 250 262 276 283 286 295 302 306 311 318 324 328 329 331 339 351 354 355 1 8 11 15 18 17 14 7 359 358 3 9
252 250 250 251 248 242 241 245 248 247 249 250 249 247 247 247 247 248 247 246 246 247 248 249 250 250 249 246 242 238 233 230 228 226 225 222 221 221 222 223 221 218 217 218 221 221 220 222 224 225 225 227 230 236 245 251 261 271 273 276 285 292 297 306 313 319 324 324 321 326 337 341 342 350 357 359 6 16 22 26 26 22 19 18 17
254 251 250 252 250 243 241 245 250 249 248 249 248 246 245 245 246 247 246 245 244 244 246 247 247 248 248 246 244 240 235 231 228 227 226 225 223 223 224 224 224 223 222 221 223 224 224 225 226 226 228 230 234 239 246 253 260 265 267 271 278 283 290 298 302 306 315 318 317 317 320 319 318 325 336 342 349 357 8 20 26 27 27 25 24
254 252 250 250 250 246 243 245 248 249 248 247 246 245 244 244 244 245 246 245 244 243 243 244 245 245 245 245 243 240 237 233 230 227 226 226 225 225 226 226 225 226 226 226 225 225 225 227 228 228 230 233 236 241 246 252 256 260 263 267 273 279 285 290 292 294 301 309 312 312 309 304 300 302 312 322 332 340 346 356 14 24 27 27 29
254 253 251 250 250 248 246 246 246 247 248 247 245 244 243 243 242 242 243 244 243 242 242 242 243 244 244 245 243 241 238 235 232 229 228 227 226 226 227 228 228 228 229 230 229 226 225 226 228 229 232 235 239 243 248 252 253 256 259 262 269 277 282 285 286 287 289 296 304 307 303 296 291 291 297 306 317 327 331 335 350 9 21 29 33
253 253 252 251 249 247 246 246 245 245 247 248 246 245 244 243 241 240 240 241 242 242 241 241 241 242 243 244 243 241 238 235 234 232 230 229 229 228 228 229 230 230 231 232 232 229 228 228 230 232 235 238 241 245 250 252 253 255 258 261 268 275 278 281 283 282 281 287 295 299 296 291 288 290 294 297 303 308 310 311 318 330 354 23 31
253 252 252 250 248 246 245 245 245 246 246 246 246 246 245 244 242 240 239 239 240 241 240 240 240 241 242 244 243 242 239 236 234 233 232 232 232 231 231 231 231 232 233 234 234 234 233 233 234 235 238 241 244 246 249 252 254 256 258 261 266 272 274 277 279 279 278 282 287 291 291 286 283 285 287 288 291 293 292 292 292 286 284 338 16
253 251 250 249 248 246 245 244 245 247 246 245 245 245 245 244 243 242 241 239 239 239 239 239 240 240 241 242 242 242 240 237 235 234 233 233 232 233 233 233 233 234 235 235 236 236 236 236 237 238 240 242 244 246 249 251 254 256 258 260 264 269 272 274 276 277 277 278 281 283 284 281 277 274 276 279 282 280 281 284 281 266 258 273 311
254 252 250 248 247 247 245 245 246 247 245 244 244 244 244 245 245 245 244 242 240 240 239 239 241 241 241 241 241 241 241 239 237 235 234 234 233 234 235 235 235 236 236 235 237 237 237 238 239 240 242 243 245 246 248 250 253 256 258 259 262 267 269 270 272 273 273 273 275 276 276 275 271 266 266 270 272 270 273 281 276 260 253 260 266
254 252 250 248 247 247 246 245 246 246 245 244 245 245 246 246 247 248 247 245 243 242 241 242 243 243 242 242 242 242 243 243 239 236 235 235 235 235 236 236 237 237 236 236 238 239 239 240 241 243 244 244 245 246 247 249 252 255 258 260 261 263 266 267 269 269 268 268 270 270 270 269 266 261 258 260 262 261 264 272 270 257 251 254 256
255 254 252 249 247 246 245 246 246 245 244 244 244 245 246 247 249 249 249 247 244 243 243 244 244 244 243 244 244 244 245 244 241 239 238 238 237 237 237 237 237 236 235 236 239 240 240 241 243 244 245 246 246 247 248 250 252 255 257 259 260 261 263 264 266 265 264 264 265 265 265 264 261 258 254 254 254 253 255 262 263 254 249 249 249
255 255 254 251 249 247 245 245 245 244 244 244 244 245 247 248 250 250 250 248 246 244 244 244 244 244 244 244 244 245 245 243 241 241 240 239 238 238 238 238 237 236 236 238 240 241 242 243 244 245 246 247 248 249 250 251 253 255 257 258 259 260 261 262 264 262 260 261 262 262 262 261 259 256 252 250 250 248 249 253 255 251 248 247 246
254 255 254 252 250 248 246 245 244 244 244 244 244 244 245 247 249 250 250 249 247 245 244 244 244 244 243 243 243 244 245 244 242 241 240 239 238 238 238 239 238 237 237 239 241 242 243 244 246 247 248 249 249 250 251 253 254 255 256 258 259 259 260 261 261 260 258 259 260 261 261 259 257 254 250 250 249 247 247 248 249 249 247 245 244
255 254 252 250 249 248 247 246 244 244 244 244 244 244 244 245 247 248 248 248 247 246 245 244 244 243 243 243 242 243 244 244 243 241 240 239 238 238 238 240 240 238 239 241 242 243 244 245 246 247 248 249 250 250 251 252 253 254 255 257 258 259 258 258 258 258 258 259 260 260 259 258 255 251 249 249 248 246 245 245 246 247 246 244 244
256 254 252 251 250 249 248 246 245 244 244 243 243 243 244 244 245 246 246 246 247 247 246 244 243 243 242 242 241 242 243 243 243 242 241 240 238 238 238 240 240 240 241 242 243 244 245 246 247 248 248 249 249 249 250 251 252 253 254 255 257 256 255 254 255 256 258 258 258 258 258 257 254 250 248 248 247 244 243 244 245 245 245 244 243
256 255 253 252 252 251 250 248 246 244 244 244 244 244 244 244 244 245 245 245 246 247 248 246 245 243 243 242 241 241 242 242 242 242 241 239 238 237 238 239 240 240 241 242 243 244 245 246 246 247 248 249 249 249 250 251 252 253 253 254 254 253 252 252 254 255 256 256 256 256 256 255 253 249 247 246 245 243 242 243 244 244 244 243 243
256 255 254 253 253 252 250 248 246 244 244 244 244 245 245 245 244 244 245 246 246 247 248 248 246 244 243 243 243 242 241 241 241 242 242 239 238 239 240 241 241 241 242 243 243 244 245 245 246 246 247 248 248 249 249 250 252 252 253 253 252 250 249 250 252 253 254 254 253 254 254 254 252 249 247 245 243 242 241 242 242 242 242 242 242
257 255 254 253 252 252 250 248 246 245 244 244 244 245 246 245 244 244 245 246 246 247 247 247 246 244 244 243 243 242 241 241 241 241 242 241 240 241 242 242 242 243 244 244 245 245 245 246 246 246 247 247 247 248 248 248 250 251 251 251 250 248 248 248 250 251 251 251 252 252 252 252 251 249 248 245 242 241 241 240 240 240 241 241 241
258 256 255 253 252 251 250 248 246 245 245 245 244 244 245 245 244 244 245 246 246 247 247 247 246 246 245 244 242 241 240 240 240 239 239 240 241 242 242 242 242 243 244 245 246 246 246 246 247 247 247 247 247 247 247 247 247 248 249 250 249 248 248 248 249 249 249 249 250 250 250 250 250 249 247 245 242 240 239 239 239 240 241 241 242
259 257 256 254 252 251 250 249 247 245 245 244 244 244 244 244 244 244 244 245 246 247 247 247 247 247 246 244 242 240 240 240 240 240 239 239 240 241 241 242 242 242 243 244 244 245 245 246 246 247 247 247 247 247 247 246 246 246 246 248 249 249 249 249 250 250 249 248 248 248 248 248 248 247 246 245 243 241 239 238 239 240 241 242 243
260 258 257 255 253 250 249 248 247 245 245 245 245 244 244 244 245 244 244 244 246 248 248 248 248 247 247 245 243 241 240 241 241 241 241 240 240 240 241 242 243 243 243 244 244 244 245 245 245 246 246 246 246 246 246 246 245 245 244 246 248 250 251 251 251 251 250 249 248 248 247 246 246 245 245 244 243 242 240 240 240 241 241 242 243
260 259 257 256 254 251 250 249 248 246 246 246 246 245 245 245 246 246 245 244 245 246 248 248 248 248 247 245 243 242 242 242 242 242 242 242 242 241 242 243 244 245 245 245 245 245 245 244 244 245 245 246 246 246 246 245 245 244 244 245 246 249 251 251 251 250 249 248 247 247 246 245 244 244 244 243 243 242 241 241 241 241 241 242 242
260 258 257 256 255 252 251 251 249 248 247 247 246 245 245 245 246 246 246 246 246 245 245 246 247 247 247 245 244 243 243 243 242 242 242 243 243 243 243 244 244 245 246 247 247 246 246 246 246 246 246 246 246 246 246 246 245 245 244 245 245 247 249 250 250 249 248 248 247 246 246 245 244 243 243 243 242 242 242 242 241 241 242 242 241
260 258 257 256 255 253 252 252 251 249 248 248 247 246 246 245 245 245 246 246 246 244 243 244 245 246 246 246 245 244 244 244 243 243 243 244 244 245 245 245 245 246 246 247 247 247 246 246 247 247 248 247 247 246 247 246 246 245 245 245 245 246 247 248 249 248 248 247 246 245 245 245 244 243 242 242 241 241 242 242 241 241 242 242 241
260 257 256 256 255 254 253 252 251 250 249 248 247 247 247 246 245 245 245 246 246 245 244 244 245 246 246 246 245 244 244 244 244 244 244 244 245 246 246 246 246 246 246 246 247 246 246 247 248 248 249 249 248 247 247 247 246 246 246 245 246 246 246 247 248 247 247 247 246 246 245 245 244 244 243 242 241 241 241 241 241 241 241 242 242
259 257 255 255 255 254 253 252 252 251 249 248 247 247 247 247 246 246 246 246 246 247 246 245 245 245 245 245 244 244 244 244 245 245 245 245 246 246 247 247 247 247 246 246 246 247 247 247 248 248 249 249 249 248 248 247 247 247 246 246 246 246 246 246 246 245 246 246 247 247 246 246 245 244 243 242 242 241 241 241 241 242 242 243 243
258 256 254 254 254 254 253 253 252 251 250 249 248 249 248 248 248 247 247 246 246 246 246 246 245 245 245 244 244 244 243 244 245 245 245 246 246 247 247 247 247 247 247 247 246 247 248 248 248 248 248 249 249 249 248 248 247 247 246 246 245 246 246 245 245 245 245 246 246 247 247 247 246 245 244 243 243 241 240 240 241 242 242 243 243
257 255 254 253 252 252 252 252 252 251 250 250 249 249 249 249 248 248 247 247 246 246 246 246 246 246 246 245 244 243 243 243 244 245 246 247 247 247 248 248 248 248 248 248 247 247 248 248 248 247 247 248 248 249 248 248 247 246 246 245 245 245 245 245 245 245 245 245 245 246 247 247 247 246 245 244 243 242 240 240 241 241 242 243 242
256 256 255 253 252 252 252 252 251 251 251 251 250 250 249 249 249 248 248 247 247 246 246 246 245 245 245 245 244 244 244 244 244 245 246 247 248 248 248 248 248 249 249 249 249 249 248 248 248 248 247 247 248 248 248 247 247 247 246 246 245 245 245 245 245 245 245 245 245 245 246 246 247 246 245 245 244 242 241 241 241 241 241 242 241
255 255 254 254 253 253 252 252 252 252 252 252 251 251 250 250 249 249 248 248 248 247 247 246 245 245 245 244 244 244 245 245 245 245 245 246 247 248 248 249 249 249 249 249 250 250 249 249 248 248 248 248 247 247 247 247 247 247 247 246 246 245 245 244 244 244 243 244 244 244 245 245 246 245 245 244 244 242 241 241 241 241 241 241 241
254 254 254 254 254 254 253 253 252 251 251 251 252 252 251 251 250 250 249 249 248 248 248 247 246 245 245 245 245 244 245 245 246 245 245 245 246 247 248 249 249 249 249 249 250 250 250 250 250 249 248 248 248 248 247 247 247 247 247 246 246 245 244 244 243 243 242 242 243 243 244 245 245 244 244 243 243 242 241 240 241 241 241 241 241